Mpanda Airport

Jump to: basic info | weather | comments

Related pages: nearby airports | nearby navaids | notams | map

Basic information (top)

Codes: HTMP
Location: lon -6.350000, lat 31.083000, elev 3,520 ft / 1,073 m msl
Status: small_airport

Weather (top)

Current conditions for Sumbawanga Airport 103nm (191km) SSE (rec'd 2014/09/19 00:00Z):

HTSU 190000Z 09004KT CAVOK 13/05 Q1021

Airport forecast for Julius Nyerere International Airport 485nm (899km) E (rec'd 2014/09/18 18:12Z):

TAF HTDA 181600Z 1818/1924 9999 15005KT FEW022 
      BECMG 1821/1903 00000KT 
      BECMG 1909/1912 18010KT BKN024 
      BECMG 1915/1918 12005KT FEW023 
      BECMG 1921/1924 00000KT

Latest comments (top)

re: Uwanja wa ndege Mpanda: Thanks God Mpanda is on the right path, ... [read]

Uwanja wa ndege Mpanda: Uwanja ni mzuri saana, [read]

matengenezo: uwanja ukikamilika utakuwa mzuri.mmejitahidi. [read]

More... (top)

See also NOTAMs and nearby airports and navaids, or visit the Mpanda Airport page at the main OurAirports website..